Retour au catalogue

IGS

ActifMilitaireSSO
NORAD 40381·PAYLOAD·🇯🇵 Japan

Lancé Feb 1, 2015 depuis Tanegashima Space Center

Loading…

Prochains Passages (prochaines 24 heures)

TLE

PériméSource: Mike McCants

Époque: Aug 24, 2026, 21:38 UTC

1 40381U 15004A   26236.90185013 0.00009100  00000-0  21414-3 0    00
2 40381  97.3279 304.3496 0004899 338.8180  21.1819 15.41971070    02

Suivez IGS en temps réel avec AllMySat

Download on the App Store